Location: Brno
(49.2000°N, 16.6330°E)
Time: 04:15:12
(UTC+02:00)

Vanguard 3 - Pass Details

Date: 08 August 2021
Orbit: 510 x 3260 km, 33.3° (Epoch: 16 September)

Event Time Altitude Azimuth Distance (km) Brightness Sun altitude
Rises 17:59:20 0° 241° (WSW) 4,812 12.1 21.7°
Reaches altitude 10° 18:02:16 10° 234° (SW) 4,152 11.8 21.2°
Maximum altitude 18:13:15 42° 169° (S) 3,287 10.3 19.4°
Drops below altitude 10° 18:29:36 10° 108° (ESE) 6,089 11.1 16.8°
Sets 18:35:02 0° 103° (ESE) 7,215 11.3 15.9°
